TimeEST,TemperatureF,Dew PointF,Humidity,Sea Level PressureIn,VisibilityMPH,Wind Direction,Wind SpeedMPH,Gust SpeedMPH,PrecipitationIn,Events,Conditions,WindDirDegrees,DateUTC
12:53 AM,36.0,34.0,93,30.01,9.0,Calm,Calm,-,N/A,,Overcast,0,2014-02-02 05:53:00
1:49 AM,37.4,35.6,93,29.98,10.0,SW,3.5,-,N/A,,Overcast,230,2014-02-02 06:49:00
1:53 AM,37.9,35.1,89,29.98,10.0,SSW,3.5,-,N/A,,Overcast,210,2014-02-02 06:53:00
2:19 AM,37.9,36.0,93,29.96,10.0,SW,4.6,-,N/A,,Scattered Clouds,220,2014-02-02 07:19:00
2:50 AM,37.4,35.6,93,29.95,9.0,Calm,Calm,-,N/A,,Mostly Cloudy,0,2014-02-02 07:50:00
2:53 AM,37.0,35.1,93,29.95,9.0,Calm,Calm,-,N/A,,Mostly Cloudy,0,2014-02-02 07:53:00
3:09 AM,37.0,35.1,93,29.94,9.0,Calm,Calm,-,N/A,,Overcast,0,2014-02-02 08:09:00
3:41 AM,39.0,37.9,96,29.92,8.0,South,3.5,-,N/A,,Overcast,190,2014-02-02 08:41:00
3:53 AM,39.9,37.9,93,29.91,9.0,South,3.5,-,N/A,,Overcast,170,2014-02-02 08:53:00
4:48 AM,39.2,37.4,93,29.90,4.0,Calm,Calm,-,N/A,,Overcast,0,2014-02-02 09:48:00
4:53 AM,39.9,37.9,93,29.90,3.0,Calm,Calm,-,N/A,,Overcast,0,2014-02-02 09:53:00
5:00 AM,39.9,37.9,93,29.90,2.0,Calm,Calm,-,N/A,,Overcast,0,2014-02-02 10:00:00
5:07 AM,41.0,39.0,93,29.90,1.5,Calm,Calm,-,N/A,,Overcast,0,2014-02-02 10:07:00
5:23 AM,39.0,37.9,96,29.90,0.5,Calm,Calm,-,N/A,Fog,Fog,0,2014-02-02 10:23:00
5:48 AM,39.2,37.4,93,29.90,0.2,Calm,Calm,-,N/A,Fog,Fog,0,2014-02-02 10:48:00
5:53 AM,37.9,37.9,100,29.90,0.2,Calm,Calm,-,N/A,Fog,Fog,0,2014-02-02 10:53:00
6:53 AM,37.9,37.9,100,29.89,0.2,SE,4.6,-,N/A,Fog,Fog,140,2014-02-02 11:53:00
7:53 AM,39.9,39.0,97,29.90,0.2,Calm,Calm,-,N/A,Fog,Fog,0,2014-02-02 12:53:00
8:46 AM,42.1,41.0,96,29.90,0.5,SSW,4.6,-,N/A,Fog,Fog,210,2014-02-02 13:46:00
8:53 AM,42.1,41.0,96,29.91,0.8,SSW,5.8,-,N/A,,Overcast,200,2014-02-02 13:53:00
9:04 AM,42.1,41.0,96,29.90,2.0,SSW,6.9,-,N/A,,Overcast,210,2014-02-02 14:04:00
9:20 AM,42.1,41.0,96,29.91,10.0,SW,5.8,-,N/A,,Scattered Clouds,230,2014-02-02 14:20:00
9:53 AM,45.0,39.9,82,29.91,10.0,Variable,6.9,-,N/A,,Clear,0,2014-02-02 14:53:00
10:53 AM,48.0,39.0,71,29.91,10.0,WSW,9.2,-,N/A,,Clear,250,2014-02-02 15:53:00
11:53 AM,48.9,37.0,64,29.89,10.0,WSW,6.9,-,N/A,,Clear,250,2014-02-02 16:53:00
12:53 PM,51.1,37.9,61,29.88,10.0,SW,4.6,-,N/A,,Clear,230,2014-02-02 17:53:00
1:53 PM,52.0,37.9,59,29.90,10.0,Variable,6.9,-,N/A,,Overcast,0,2014-02-02 18:53:00
2:53 PM,50.0,37.9,63,29.90,10.0,SSW,6.9,-,N/A,,Overcast,210,2014-02-02 19:53:00
3:53 PM,46.9,37.0,68,29.92,10.0,SW,4.6,-,N/A,,Overcast,220,2014-02-02 20:53:00
4:53 PM,45.0,37.0,74,29.91,10.0,SSW,4.6,-,0.00,,Overcast,200,2014-02-02 21:53:00
5:53 PM,44.1,36.0,73,29.94,10.0,Calm,Calm,-,N/A,,Overcast,0,2014-02-02 22:53:00
6:53 PM,43.0,36.0,76,29.96,10.0,Calm,Calm,-,N/A,,Overcast,0,2014-02-02 23:53:00
7:53 PM,43.0,36.0,76,29.99,10.0,Calm,Calm,-,N/A,,Overcast,0,2014-02-03 00:53:00
8:53 PM,45.0,36.0,71,30.01,10.0,WNW,4.6,-,N/A,,Overcast,300,2014-02-03 01:53:00
9:53 PM,45.0,34.0,65,30.02,10.0,NW,3.5,-,N/A,,Overcast,310,2014-02-03 02:53:00
10:53 PM,44.1,34.0,68,30.03,10.0,Calm,Calm,-,N/A,,Overcast,0,2014-02-03 03:53:00
11:53 PM,42.1,32.0,67,30.04,10.0,WNW,6.9,-,N/A,,Overcast,300,2014-02-03 04:53:00